Regional Weather Roundup
Issued by NWS

Home | Current Version | Previous Version | Graphics & Text | Print | Product List | Glossary On
Versions: 1 2 3 4 5 6 7 8 9 10 11 12 13 14 15 16 17 18 19 20 21 22 23 24 25 26 27 28 29 30 31 32 33 34 35 36 37 38 39 40 41 42 43 44 45 46 47 48 49 50
000
ASUS43 KFSD 261710
RWRSD

WEATHER ROUNDUP FOR SOUTH DAKOTA
NATIONAL WEATHER SERVICE SIOUX FALLS SD
1200 PM CDT FRI MAY 26 2017

NOTE: "FAIR" INDICATES FEW OR NO CLOUDS BELOW 12,000 FEET WITH NO
SIGNIFICANT WEATHER AND/OR OBSTRUCTIONS TO VISIBILITY.


SDZ001>005-009-010-012>017-261800-
NORTHWEST AND NORTH CENTRAL SOUTH DAKOTA

CITY           SKY/WX    TMP DP  RH WIND       PRES   REMARKS
BUFFALO          N/A     61  36  39 W22G33    29.82S
FAITH            N/A     63  37  38 NW24G32   29.86S
MOBRIDGE       SUNNY     62  40  44 NW15G26   29.80R
$$

SDZ012>016-024>037-041>051-057-063-072>074-261800-
SOUTHWEST AND SOUTH CENTRAL SOUTH DAKOTA

CITY           SKY/WX    TMP DP  RH WIND       PRES   REMARKS
RAPID CTY ARPT SUNNY     65  34  31 N13G24    29.90F
PIERRE         SUNNY     67  39  35 NW20G28   29.84S
CUSTER         MOSUNNY   56  26  31 VRB6      29.94S
ELLSWORTH AFB  SUNNY     63  32  31 N18G28    29.89
PHILIP         SUNNY     66  37  34 NW22G29   29.88R
PINE RIDGE     SUNNY     62  34  35 W6        29.93S
SPEARFISH      FAIR      57  37  47 NW16      29.93S
WINNER         FAIR      66  41  40 N10G21    29.89F
$$

SDZ004>011-016>023-039-040-261800-
NORTHEAST SOUTH DAKOTA

CITY           SKY/WX    TMP DP  RH WIND       PRES   REMARKS
ABERDEEN       MOSUNNY   65  39  38 W16G23    29.78S
WATERTOWN      SUNNY     64  46  52 W17       29.78R
BROOKINGS      SUNNY     65  49  56 W20       29.79S
SISSETON         N/A     69  46  43 NW21G26   29.73S
$$

SDZ017-020-022-023-036>040-048>070-261800-
SOUTHEAST SOUTH DAKOTA

CITY           SKY/WX    TMP DP  RH WIND       PRES   REMARKS
SIOUX FALLS    MOSUNNY   70  50  49 NW15      29.80R
HURON          SUNNY     67  43  41 W14G22    29.81S
CHAMBERLAIN    SUNNY     67  43  41 W14       29.87S
MITCHELL       SUNNY     68  43  40 W13G20    29.83S
$$

ABBREVIATIONS USED IN REMARKS
   TC - TEMPERATURE IN CELSIUS
  WCI - WIND CHILL INDEX
   HX - HEAT INDEX
  VSB - VISIBILITY





USA.gov is the U.S. government's official web portal to all federal, state and local government web resources and services.